Location: Canazei
(46.4667°N, 11.7667°E)
Time: 05:59:18
(UTC+00:00)

Cosmos 1953 - Pass Details

Date: 21 April 2021
Orbit: 537 x 558 km, 82.5° (Epoch: 14 May)

Event Time Altitude Azimuth Distance (km) Brightness Sun altitude
Rises 03:31:13 0° 357° (N) 2,711 6.2 -7.8°
Reaches altitude 10° 03:33:30 10° 5° (N) 1,811 5.4 -7.5°
Maximum altitude 03:37:16 40° 76° (ENE) 809 3.9 -6.9°
Drops below altitude 10° 03:40:59 10° 147° (SSE) 1,793 5.1 -6.3°
Sets 03:43:13 0° 155° (SSE) 2,679 5.9 -6.0°
